Location: Hauppauge
(40.8260°N, 73.2030°W)
Time: 09:34:44
(UTC-04:00)

Daily predictions for brighter satellites

Satellite Brightness Start Highest point End
(mag) Time Altitude Azimuth Time Altitude Azimuth Time Altitude Azimuth
YAOGAN 11 4.2 20:54:16 10° S 20:58:34 79° WSW 21:02:56 10° NNW
Cosmos 2026 Rocket 4.4 20:55:41 10° SSW 21:01:45 69° W 21:07:55 10° N
Cosmos 1538 Rocket 4.1 20:58:39 10° NNW 21:04:01 85° ENE 21:09:23 10° SSE
OE (NEXTSAT) 4.5 21:02:44 10° WNW 21:06:20 82° NNE 21:09:55 10° ESE
CZ-2C R/B -0.5 21:07:15 10° SSE 21:08:54 89° W 21:10:34 10° NNW
Cosmos 2219 4.2 21:08:03 10° SSE 21:12:44 27° ESE 21:17:27 10° NE
H-2A R/B 2.2 21:12:16 10° SSE 21:16:48 87° ENE 21:21:21 10° NNW
USA 229 DEB 3.7 21:13:05 10° SSW 21:19:59 78° ESE 21:27:00 10° NE
USA 229 3.7 21:13:11 10° SSW 21:20:05 78° ESE 21:27:06 10° NE
Terra 4.0 21:19:01 10° ENE 21:20:21 11° ENE 21:21:41 10° NE
Cosmos 1328 Rocket 3.9 21:16:11 10° NNW 21:20:38 69° W 21:25:01 10° S
Cosmos 2322 4.2 21:15:34 10° NNW 21:21:08 50° ENE 21:26:17 12° SE
Cosmos 1441 Rocket 3.3 21:18:38 10° SSW 21:22:25 78° W 21:26:12 10° N
S3M 4.3 21:18:54 10° NNW 21:24:59 71° W 21:31:03 10° S
Cosmos 2322 Rocket 2.8 21:20:01 10° NNW 21:25:28 54° WSW 21:30:54 10° S
Cosmos 1726 4.2 21:23:56 10° NE 21:26:05 15° ENE 21:28:05 11° ESE
CZ-4 SHROUD 3.5 21:24:44 12° SSE 21:27:29 52° ENE 21:30:33 10° N
Cosmos 773 Rocket 4.0 21:22:23 10° NNW 21:27:37 80° ENE 21:32:42 11° SSE
Cosmos 2228 Rocket 4.4 21:27:35 10° NNW 21:31:45 40° W 21:35:58 10° SSW
SL-16 R/B 3.0 21:30:03 10° NW 21:35:28 48° WSW 21:40:52 10° S
Cosmos 2360 Rocket 2.3 21:30:11 10° NNW 21:35:49 67° ENE 21:40:36 15° SE
NOSS 3-1 (A) 4.3 21:35:10 10° SSE 21:39:58 27° ESE 21:45:07 10° NE
SL-23 DEB 4.4 21:35:56 10° NW 21:41:11 56° NNE 21:43:59 15° ESE
Cosmos 1500 Rocket 4.3 21:36:59 10° SSW 21:41:15 54° W 21:45:35 10° N
ATLAS CENTAUR R/B 3.8 21:38:21 10° WNW 21:41:18 18° WSW 21:44:06 10° SSW
Cosmos 1908 3.4 21:38:39 10° N 21:42:33 77° W 21:46:19 11° S
Aureole 3 4.5 21:42:58 10° S 21:49:52 71° E 21:55:26 10° NNE
MetOp-B 4.1 21:45:28 13° SSE 21:50:19 86° ENE 21:55:42 10° NNW
Cosmos 1939 Rocket 4.2 21:48:29 10° SSW 21:52:09 36° W 21:55:47 10° NNW
DELTA 2 R/B(2) 3.5 21:54:54 10° WSW 21:56:37 50° SSE 21:57:18 34° ESE
Delta 2 Rocket 3.7 21:54:05 10° SW 21:57:12 30° S 21:58:00 27° SE
FALCON 9 R/B 4.4 21:24:13 10° WSW 21:58:31 64° S 22:06:31 10° E
Meteor 1-4 Rocket 4.1 21:55:29 10° NNE 21:58:32 23° ENE 21:59:48 19° ESE
Cosmos 1674 3.6 21:55:10 10° SSW 21:58:53 49° W 22:02:39 10° N
Envisat 3.8 21:54:09 10° S 21:59:01 48° W 22:03:57 10° NNW
SPOT 5 3.2 21:55:18 11° S 21:59:31 57° W 22:04:13 10° NNW
Cosmos 2227 Rocket 3.7 22:00:43 16° ESE 22:01:40 17° E 22:05:10 10° ENE
ATLAS 2AS CENTAUR R/B 4.1 22:00:49 17° ESE 22:02:46 19° ESE 22:07:52 10° ENE
SL-08 RB Rocket 3.9 22:02:37 23° SE 22:05:13 56° ENE 22:09:37 10° N
Cosmos 1626 4.3 22:05:29 12° E 22:05:29 12° E 22:06:54 10° ENE
Cosmos 1300 2.7 22:05:24 10° N 22:09:14 63° E 22:11:00 29° SSE
Tiangong 1 3.4 22:06:39 10° SSW 22:06:59 12° SSW 22:06:59 12° SSW
Cosmos 2112 Rocket 4.0 22:04:05 10° NNW 22:09:20 84° WSW 22:12:50 22° SSE
Cosmos 2333 Rocket 3.7 22:04:51 10° N 22:09:37 26° NE 22:13:11 15° ESE
USA 245 2.2 22:10:34 39° S 22:11:23 75° WSW 22:13:48 10° NNW
Cosmos 2298 Rocket 4.2 22:07:58 16° S 22:12:08 55° ESE 22:17:20 10° NNE
Cosmos 1437 3.8 22:09:00 10° SSW 22:12:10 45° WNW 22:15:21 10° N
DELTA 2 R/B (1) 3.7 22:07:54 10° W 22:13:19 56° SSW 22:16:24 25° SE
SL-16 R/B 4.5 22:11:16 10° NNE 22:13:26 12° NE 22:15:36 10° ENE
CARTOSAT-1 4.3 22:17:10 26° ESE 22:18:53 38° ENE 22:22:54 10° N
Cosmos 1937 Rocket 4.0 22:18:23 27° SSE 22:20:34 39° ESE 22:25:23 10° NE
Cosmos 2315 Rocket 4.1 22:14:28 10° N 22:20:40 73° W 22:25:34 17° S
COSMOS 2428 2.7 22:15:54 10° NNW 22:21:37 77° ENE 22:24:46 28° SSE
Sich 1 3.0 22:20:01 26° S 22:22:23 68° E 22:26:47 10° NNE
ATLAS 3B R/B 4.5 22:17:03 10° NNW 22:22:34 23° NE 22:27:48 10° E
Cosmos 1633 Rocket 3.0 22:21:04 28° SSE 22:23:16 65° E 22:27:37 10° NNE
Cosmos 2151 4.2 22:19:36 10° SSW 22:23:32 39° WNW 22:27:31 10° N
YAOGAN 6 3.7 22:23:28 19° SSW 22:25:40 38° W 22:29:06 10° NNW
NOSS 3-1 (C) 3.3 22:21:32 10° SSW 22:27:21 80° ESE 22:33:50 10° NE
Cosmos 2297 Rocket 3.5 22:28:39 20° ESE 22:29:00 20° E 22:33:00 10° NE
CZ-4C R/B 2.9 22:29:16 45° SSE 22:30:13 76° ENE 22:33:41 10° N
Cosmos 1455 3.5 22:28:49 10° NNE 22:32:02 25° ENE 22:32:31 25° E
H-2A R/B 2.3 22:29:35 30° SE 22:32:12 63° ENE 22:37:34 10° N
Cosmos 1805 Rocket 4.3 22:33:35 14° SSW 22:37:18 51° W 22:41:40 10° N
Cosmos 2219 Rocket 2.6 22:32:44 10° NNW 22:38:12 52° ENE 22:40:43 30° ESE
ARGOS 3.6 22:37:03 22° S 22:40:26 57° W 22:45:46 10° NNW
Lacrosse 4 Rocket 4.1 22:39:02 10° NNE 22:40:32 11° NE 22:42:02 10° ENE
Landsat 7 3.8 22:39:24 34° S 22:41:29 86° WSW 22:46:16 10° NNW
Cosmos 2237 4.4 22:37:32 10° NNW 22:43:14 68° WSW 22:46:02 31° S
SPOT 1/Viking Rocket 4.5 22:41:07 19° SSW 22:44:28 42° W 22:49:22 10° NNW
Cosmos 2058 4.4 22:46:01 11° SW 22:49:30 33° WNW 22:53:13 10° NNW
Nadezhda 1 Rocket 4.0 22:43:57 10° N 22:50:00 66° E 22:52:38 35° SSE
Cosmos 292 Rocket 3.7 22:47:25 10° NNW 22:52:13 82° ENE 22:53:38 45° SSE
Cosmos 1980 4.1 22:48:01 10° NNW 22:53:32 50° ENE 22:55:44 33° ESE
Spot 4 3.9 22:52:29 42° SE 22:54:03 70° ENE 22:58:53 10° N
Cosmos 2219 4.3 22:51:08 10° SW 22:56:36 44° WNW 23:02:07 10° NNE
Terra 1.7 22:55:46 43° S 22:57:21 85° WSW 23:02:09 10° NNW
SAR-Lupe-2 3.4 22:57:19 73° SSE 22:57:38 87° ENE 23:01:14 10° NNW
COSMOS 2455 4.2 22:54:05 10° N 22:59:18 29° NE 23:02:42 18° E
Cosmos 1703 3.4 22:58:43 44° SSW 22:59:47 68° W 23:03:42 10° N
Cosmos 1898 Rocket 3.8 22:56:18 17° SSW 23:00:17 64° WNW 23:05:29 10° NNE
Cosmos 1745 Rocket 3.9 22:57:28 28° S 23:01:01 86° W 23:07:15 10° N
Cosmos 1726 3.5 22:58:09 10° NNW 23:01:36 34° W 23:02:46 27° SW
Cosmos 2150 Rocket 4.5 22:57:11 15° SSW 23:01:44 63° WNW 23:07:11 10° NNE
Cosmos 1271 Rocket 3.0 22:58:46 10° NNW 23:02:32 58° W 23:03:14 49° SW
Cosmos 2333 4.4 22:57:46 10° NNW 23:03:26 63° WSW 23:05:40 36° S
Spot 2 4.4 23:00:30 10° NNE 23:05:40 86° ESE 23:07:28 41° S
Cosmos 1346 3.9 23:07:04 47° NNE 23:07:04 47° NNE 23:09:21 10° NNE
Cosmos 1125 Rocket 4.4 23:06:14 30° ESE 23:06:22 30° E 23:10:57 10° NE
Cosmos 2237 Rocket 2.4 23:01:06 10° NNW 23:06:45 59° ENE 23:08:42 39° ESE
Cosmos 2082 3.7 23:07:20 42° S 23:09:09 62° ESE 23:14:48 10° NNE
Cosmos 1709 Rocket 4.3 23:07:48 38° SE 23:09:34 49° E 23:15:24 10° NNE
DMSP B5D2-2 4.2 23:07:26 10° N 23:12:39 73° WNW 23:15:08 31° SSW
Cosmos 1470 Rocket 3.6 23:11:47 49° SSW 23:12:51 73° W 23:17:11 10° N
Cosmos 220 Rocket 4.3 23:12:13 37° SW 23:13:49 67° WNW 23:18:14 10° NNE
Cosmos 1933 Rocket 3.7 23:13:06 48° SSW 23:14:17 74° W 23:18:45 10° N
IGS 5A 3.8 23:14:41 48° SW 23:15:26 56° W 23:19:33 10° NNW
SeaSat 1 3.3 23:15:33 32° E 23:17:06 41° ENE 23:21:43 10° NNW
Cosmos 1703 Rocket 4.4 23:13:09 10° N 23:17:10 35° ENE 23:17:24 34° E
Cosmos 2360 Rocket 4.3 23:15:47 10° WNW 23:19:10 16° W 23:22:22 11° SW
Cosmos 1933 4.0 23:18:47 10° N 23:22:33 41° ENE 23:22:33 41° ENE
NOSS 3-1 (A) 4.2 23:24:37 10° SW 23:30:23 52° NW 23:36:49 10° NNE
NOSS 0 Rocket 4.0 23:25:24 10° NNW 23:31:31 68° WSW 23:33:19 46° S
Cosmos 2181 Rocket 4.2 23:25:28 10° N 23:31:48 64° E 23:33:42 45° SE
Cosmos 192 4.2 23:34:30 10° NNW 23:39:27 87° WSW 23:40:02 70° S
Cosmos 1626 3.1 23:40:11 39° W 23:40:26 40° WNW 23:44:01 10° N
Cosmos 2227 Rocket 2.5 23:42:28 32° SW 23:45:05 65° WNW 23:50:45 10° NNE
Cosmos 468 4.4 23:41:46 10° NNW 23:47:09 87° ENE 23:47:58 65° SSE
ERBS 3.9 23:51:24 31° NE 23:51:24 31° NE 23:53:21 10° NE
IKONOS-2 4.4 23:50:00 87° W 23:50:00 87° W 23:54:18 10° NNW
Cosmos 2333 Rocket 2.6 23:48:36 10° NW 23:54:08 50° WSW 23:55:11 44° SW
